Fran Budimir

Scout - Imotski
19 Nov 2028
Sonntag
Verarbeitung

Persönlichkeit

Anpassungsfähigkeit (3) Ehrgeiz (4) Kontroverse (12) Loyalität (18) Druck (1) Professionalität (3) Fairness (10) Temperament (1)

Profil

Trainerstil Demokratisch
Lizenz Nationale B
Entschlossenheit 7
Menschenführung 2
Motivation 8
Disziplin 2
Arbeitszufriedenheit
100%
Ermüdung
0%
Rolle Scout
Gehalt 7.1K p/W
Vertrag 14.03.2029

Leistung

Verhalten Gut
Trainingseffektivität
28%
Spielerentwicklung
25%
Verletzungsprävention
25%
Taktische Umsetzung
35%

Letzte Ereignisse

Spieler begutachtet jetzt
Nahm an einer Scouting-Besprechung teil jetzt
Spieler begutachtet jetzt
Nahm an einer Scouting-Besprechung teil 7T her
Spieler begutachtet 7T her
Spieler begutachtet 7T her
Spieler begutachtet 7T her
Spieler begutachtet 7T her

Aktuell beobachtet

85
Spieler Verein Status Fähigkeit Vertrauen Beobachtet Zuletzt beobachtet Letzte Stimme
Antonio Napolitano Agropecuario Argentino Aktiv 118 / 123 40% 5 17.11.2028 -
Emiliano Purita All Boys Aktiv 112 / 92 40% 3 17.11.2028 -
Dylan Cabral Arsenal Aktiv 111 / 124 40% 3 16.11.2028 -
Diego Gaitán Maipú Aktiv 127 / 126 40% 1 16.11.2028 -
Juan David Rueda Alianza Petrolera Aktiv 117 / 105 40% 3 15.11.2028 -
Facundo Taborda Racing Aktiv 96 / 103 40% 1 15.11.2028 -
Renzo Reynaga Patronato Aktiv 94 / 117 40% 2 13.11.2028 -
Santiago Gutiérrez Alvarado Aktiv 95 / 113 40% 2 11.11.2028 -
Santiago Moyano Central Córdoba SdE Aktiv 111 / 109 40% 3 10.11.2028 -
Musa Afeez Kwara United Aktiv 94 / 100 40% 1 10.11.2028 -
David Eke Enyimba Aktiv 73 / 91 40% 2 09.11.2028 -
Jhon Solís Fortaleza CEIF Aktiv 98 / 103 40% 2 09.11.2028 -
Naziru Auwalu Wikki Tourists Aktiv 91 / 102 40% 2 06.11.2028 -
Santiago Camacho Estudiantes Aktiv 89 / 107 40% 2 06.11.2028 -
Miguel Ceccotti Güemes Aktiv 125 / 95 40% 2 05.11.2028 -
Luis Sandoval Independiente Medellin Aktiv 120 / 121 40% 1 04.11.2028 -
Jerónimo Porto Lapegüe San Telmo Aktiv 123 / 109 40% 2 02.11.2028 -
Siro Rosané Estudiantes Aktiv 118 / 133 40% 1 02.11.2028 -
Marco Miori Alvarado Aktiv 101 / 123 40% 1 01.11.2028 -
Facundo Villarreal Los Andes Aktiv 100 / 103 40% 2 30.10.2028 -
Francisco Funes Los Andes Aktiv 95 / 95 40% 1 29.10.2028 -
Sebastián de Marco Fenix Aktiv 98 / 100 40% 1 29.10.2028 -
Elías Ayala Madryn Aktiv 114 / 117 40% 2 28.10.2028 -
Gustavo Viera Cerro Largo Aktiv 117 / 90 40% 1 26.10.2028 -
Santiago Kubiszyn Morón Aktiv 102 / 99 40% 1 25.10.2028 -
Agustín Pereira Albion Aktiv 125 / 130 40% 1 25.10.2028 -
Johan Campaña Patriotas Aktiv 119 / 92 40% 2 22.10.2028 -
Agustín Ojeda Chaco For Ever Aktiv 98 / 119 40% 1 21.10.2028 -
Pedro Sanz Central Norte Aktiv 99 / 119 40% 2 20.10.2028 -
Mafeng Pam Plateau United Aktiv 76 / 100 40% 1 20.10.2028 -
Ismail Mukhtar El-Kanemi Warriors Aktiv 90 / 106 40% 1 19.10.2028 -
Yeferson Rodallega Envigado Aktiv 132 / 99 40% 2 18.10.2028 -
Alan Olinick Racing Aktiv 100 / 129 40% 2 17.10.2028 -
Camilo Machado Madryn Aktiv 115 / 101 40% 1 17.10.2028 -
Gideon Manaseh Ikorodu City Aktiv 84 / 92 40% 1 15.10.2028 -
David Veliz Güemes Aktiv 104 / 101 40% 1 14.10.2028 -
Yeferson Contreras Estudiantes de Caracas Aktiv 101 / 97 40% 1 14.10.2028 -
Álvaro Meléndez Real Cartagena Aktiv 100 / 99 40% 2 12.10.2028 -
Gerónimo Tomasetti Temperley Aktiv 105 / 91 40% 1 12.10.2028 -
Estanislao Jara Madryn Aktiv 97 / 107 40% 2 10.10.2028 -
Alao Dabani Nasarawa United Aktiv 92 / 97 40% 1 10.10.2028 -
José Barreto Quilmes Aktiv 123 / 98 40% 1 07.10.2028 -
Samuel Bello Patriotas Aktiv 86 / 111 40% 1 05.10.2028 -
Shuaibu Ibrahim Wikki Tourists Aktiv 102 / 105 40% 1 04.10.2028 -
Lautaro Díaz San Martín Aktiv 97 / 99 40% 1 03.10.2028 -
Tobías Macies Almagro Aktiv 91 / 111 40% 1 03.10.2028 -
Marcos Enrique Tristán Suárez Aktiv 111 / 131 40% 1 02.10.2028 -
Dehinde Ibrahim Bayelsa United Aktiv 97 / 85 40% 1 02.10.2028 -
Franco Malagueño Colegiales Aktiv 105 / 117 40% 1 21.08.2028 -
Paolo Dorini Estudiantes de Merida Aktiv 86 / 94 40% 1 20.08.2028 -
Seth Mayi Warri Wolves Aktiv 87 / 99 40% 1 18.08.2028 -
Enzo Silcan Almagro Aktiv 97 / 129 40% 1 18.08.2028 -
Ariel Castellano Alvarado Aktiv 98 / 111 40% 1 17.08.2028 -
Salman Abubakar Mosta Aktiv 100 / 87 40% 1 16.08.2028 -
Bruno Pérez Madryn Aktiv 120 / 109 40% 1 13.08.2028 -
Richmond Lamptey Ashanti Gold Aktiv 115 / 90 40% 2 10.08.2028 -
Lautaro Disanto Defensores Unidos Aktiv 115 / 119 40% 1 10.08.2028 -
Fernando Duré Estudiantes Aktiv 95 / 111 40% 1 07.08.2028 -
Franco Zicarelli Colegiales Aktiv 107 / 92 40% 1 07.08.2028 -
Will Hondermarck Great Olympics Aktiv 85 / 111 40% 1 31.07.2028 -
Kehinde Lawal Bayelsa United Aktiv 84 / 94 40% 1 24.07.2028 -
Manuele Malotti Livorno Aktiv 93 / 116 40% 1 24.07.2028 -
Gianluca Pugliese Güemes Aktiv 93 / 128 40% 1 11.07.2028 -
Yevhen Smyrnyi Kudrivka Aktiv 96 / 111 40% 2 04.07.2028 -
Jaiminho Leiria Aktiv 99 / 122 40% 1 04.07.2028 -
Daniel Valdelamar Yenisey Aktiv 108 / 97 40% 1 27.06.2028 -
Frazer Blake-Tracy Newport County Aktiv 89 / 98 40% 1 22.06.2028 -
Jhon Murillo Jaguares Aktiv 124 / 109 40% 1 22.06.2028 -
Thomas Agyepong Berekum Chelsea Aktiv 103 / 80 40% 1 21.06.2028 -
Yegor Noskov SKA Khabarovsk Aktiv 113 / 111 40% 1 21.06.2028 -
Ishmael Addo Heart of Lions Aktiv 78 / 98 40% 1 19.06.2028 -
Luka Bilandžić Rudes Aktiv 60 / 76 51% 1 12.06.2028 -
Saber Hraiech Trapani Aktiv 95 / 99 40% 1 07.06.2028 -
Antonio Salado Ospitaletto Aktiv 100 / 107 40% 1 07.06.2028 -
Ilja Zhigulev Chernomorets Aktiv 97 / 96 40% 1 04.06.2028 -
Juan Pablo Ramírez Chernomorets Aktiv 93 / 99 40% 1 02.06.2028 -
Abeiku Partey Liberty Professionals Aktiv 95 / 97 40% 1 02.06.2028 -
Robert Murić Floriana Aktiv 102 / 103 40% 1 02.06.2028 -
Kristijan Simunovic Cibalia Aktiv 73 / 73 51% 1 24.01.2028 -
Sime Srna Cibalia Aktiv 74 / 100 51% 1 01.01.2028 -
Bartol Kunert Segesta Aktiv 83 / 89 51% 1 01.06.2027 -
Renato Solís Sporting Cristal Aktiv 121 / 142 40% 1 04.08.2026 -
John Amah Plateau United Aktiv 95 / 106 40% 1 04.08.2026 -
Thomas Carrique Andorra Aktiv 111 / 104 40% 1 01.08.2026 -
Rodrigo Saracho San Marcos de Arica Aktiv 130 / 124 40% 1 01.08.2026 -